GOES 14

Last updated on Sun Apr 12 2026 00:02:26 GMT+0000 (Coordinated Universal Time)

1 35491U 09033A 26101.46225367 .00000023 00000+0 00000+0 0 9995 2 35491 1.5167 83.8364 0001779 305.0646 156.4317 1.00113670 5926
UTC large
Height (km)
Speed (km/s)
/
Latitude / Longitude
Inclination (degrees)
Orbital Period (minutes)
Azimuth
Elevation
Range (km)
Doppler Factor

Next 0 passes for location: London (51.5072 / 0.1276)

Sorry there are no passes over London.